| time (UTC) | temp C | wind direction | speed KPH | gust KPH | rain 1hr cm | rain 24hr cm | rain mn cm | humidity % | barometer mb |
| 20260504003507 | 13 | 145 | 1.6 | 3.2 | 0.00 | 0.03 | 0.03 | 51 | 1016.3 |
| 20260504003025 | 13 | 145 | 0.0 | 4.8 | 0.00 | 0.03 | 0.03 | 51 | 1016.4 |
| 20260504002503 | 13 | 145 | 1.6 | 4.8 | 0.00 | 0.03 | 0.03 | 51 | 1016.4 |
| 20260504002003 | 13 | 125 | 1.6 | 4.8 | 0.00 | 0.05 | 0.03 | 51 | 1016.4 |
| 20260504001518 | 14 | 83 | 1.6 | 3.2 | 0.00 | 0.05 | 0.03 | 50 | 1016.4 |
| 20260504001005 | 14 | 226 | 1.6 | 3.2 | 0.00 | 0.08 | 0.03 | 49 | 1016.4 |
| 20260504000506 | 15 | 226 | 1.6 | 4.8 | 0.00 | 0.10 | 0.03 | 47 | 1016.6 |
| 20260504000015 | 15 | 226 | 1.6 | 9.7 | 0.00 | 0.10 | 0.03 | 46 | 1016.7 |
| 20260503235506 | 16 | 226 | 3.2 | 9.7 | 0.00 | 0.10 | 0.03 | 44 | 1016.8 |
| 20260503235007 | 16 | 226 | 4.8 | 9.7 | 0.00 | 0.10 | 0.03 | 43 | 1017.0 |
| 20260503234520 | 16 | 238 | 3.2 | 8.0 | 0.00 | 0.10 | 0.03 | 41 | 1017.0 |
| 20260503234013 | 17 | 240 | 3.2 | 9.7 | 0.00 | 0.10 | 0.03 | 43 | 1017.1 |
| 20260503233507 | 17 | 240 | 3.2 | 9.7 | 0.00 | 0.10 | 0.03 | 41 | 1017.1 |
| 20260503233026 | 17 | 217 | 3.2 | 14.5 | 0.00 | 0.10 | 0.03 | 42 | 1017.1 |
| 20260503232508 | 17 | 231 | 3.2 | 14.5 | 0.00 | 0.10 | 0.03 | 42 | 1017.1 |
| 20260503232016 | 17 | 246 | 4.8 | 12.9 | 0.00 | 0.10 | 0.03 | 40 | 1017.1 |
| 20260503231526 | 17 | 236 | 3.2 | 11.3 | 0.00 | 0.10 | 0.03 | 43 | 1017.2 |
| 20260503231012 | 17 | 229 | 4.8 | 16.1 | 0.00 | 0.10 | 0.03 | 42 | 1017.2 |
| 20260503230503 | 17 | 224 | 6.4 | 16.1 | 0.00 | 0.10 | 0.03 | 42 | 1017.2 |
| 20260503230016 | 17 | 205 | 6.4 | 20.9 | 0.00 | 0.10 | 0.03 | 42 | 1017.1 |
| 20260503225503 | 17 | 250 | 4.8 | 20.9 | 0.00 | 0.10 | 0.03 | 42 | 1017.2 |
| 20260503225006 | 17 | 221 | 6.4 | 16.1 | 0.00 | 0.10 | 0.03 | 40 | 1017.2 |
| 20260503224518 | 17 | 211 | 3.2 | 19.3 | 0.00 | 0.10 | 0.03 | 43 | 1017.3 |
| 20260503224007 | 17 | 192 | 6.4 | 20.9 | 0.00 | 0.10 | 0.03 | 44 | 1017.4 |
| 20260503223508 | 17 | 189 | 11.3 | 20.9 | 0.00 | 0.10 | 0.03 | 41 | 1017.5 |
| 20260503223021 | 17 | 207 | 9.7 | 20.9 | 0.00 | 0.10 | 0.03 | 42 | 1017.5 |
| 20260503222508 | 17 | 218 | 11.3 | 20.9 | 0.00 | 0.10 | 0.03 | 41 | 1017.5 |
| 20260503222008 | 18 | 186 | 6.4 | 12.9 | 0.00 | 0.10 | 0.03 | 41 | 1017.6 |
| 20260503221533 | 18 | 217 | 3.2 | 11.3 | 0.00 | 0.10 | 0.03 | 44 | 1017.6 |
| 20260503221011 | 18 | 192 | 4.8 | 16.1 | 0.00 | 0.10 | 0.03 | 44 | 1017.6 |
| 20260503220509 | 18 | 252 | 6.4 | 16.1 | 0.00 | 0.10 | 0.03 | 41 | 1017.7 |
| 20260503220026 | 18 | 247 | 3.2 | 20.9 | 0.00 | 0.10 | 0.03 | 41 | 1017.7 |
| 20260503215510 | 17 | 181 | 4.8 | 20.9 | 0.00 | 0.10 | 0.03 | 44 | 1017.8 |
| 20260503215008 | 18 | 198 | 9.7 | 20.9 | 0.00 | 0.10 | 0.03 | 41 | 1017.9 |
| 20260503214516 | 18 | 215 | 3.2 | 12.9 | 0.00 | 0.10 | 0.03 | 43 | 1017.9 |
| 20260503214008 | 18 | 287 | 6.4 | 16.1 | 0.00 | 0.10 | 0.03 | 41 | 1018.0 |
| 20260503213506 | 17 | 211 | 9.7 | 16.1 | 0.00 | 0.10 | 0.03 | 42 | 1018.0 |
| 20260503213029 | 18 | 238 | 4.8 | 12.9 | 0.00 | 0.10 | 0.03 | 41 | 1018.1 |
| 20260503212508 | 18 | 233 | 6.4 | 12.9 | 0.00 | 0.10 | 0.03 | 42 | 1018.1 |
| 20260503212009 | 18 | 298 | 3.2 | 14.5 | 0.00 | 0.10 | 0.03 | 44 | 1018.2 |
| 20260503211525 | 18 | 355 | 6.4 | 14.5 | 0.00 | 0.10 | 0.03 | 39 | 1018.3 |
| 20260503211009 | 18 | 315 | 6.4 | 12.9 | 0.00 | 0.10 | 0.03 | 42 | 1018.3 |
| 20260503210509 | 18 | 242 | 3.2 | 16.1 | 0.00 | 0.10 | 0.03 | 46 | 1018.4 |
| 20260503210028 | 18 | 261 | 3.2 | 16.1 | 0.00 | 0.10 | 0.03 | 40 | 1018.4 |
| 20260503205509 | 18 | 229 | 8.0 | 16.1 | 0.00 | 0.10 | 0.03 | 43 | 1018.5 |
| 20260503205017 | 17 | 213 | 8.0 | 17.7 | 0.00 | 0.10 | 0.03 | 41 | 1018.5 |
| 20260503204528 | 17 | 193 | 8.0 | 17.7 | 0.00 | 0.10 | 0.03 | 41 | 1018.5 |
| 20260503204008 | 17 | 240 | 6.4 | 22.5 | 0.00 | 0.10 | 0.03 | 46 | 1018.6 |
| 20260503203509 | 17 | 191 | 6.4 | 22.5 | 0.00 | 0.10 | 0.03 | 44 | 1018.8 |
| 20260503203017 | 17 | 178 | 9.7 | 20.9 | 0.00 | 0.10 | 0.03 | 45 | 1018.8 |
| 20260503202509 | 17 | 275 | 4.8 | 19.3 | 0.00 | 0.10 | 0.03 | 47 | 1019.0 |
| 20260503202010 | 17 | 178 | 11.3 | 19.3 | 0.00 | 0.10 | 0.03 | 46 | 1019.1 |
| 20260503201529 | 17 | 243 | 8.0 | 19.3 | 0.00 | 0.10 | 0.03 | 48 | 1019.1 |
| 20260503201002 | 18 | 207 | 6.4 | 14.5 | 0.00 | 0.10 | 0.03 | 50 | 1019.3 |
| 20260503200503 | 17 | 233 | 6.4 | 17.7 | 0.00 | 0.10 | 0.03 | 48 | 1019.4 |
| 20260503200010 | 17 | 328 | 4.8 | 17.7 | 0.00 | 0.10 | 0.03 | 51 | 1019.5 |
| 20260503195503 | 16 | 254 | 4.8 | 22.5 | 0.00 | 0.10 | 0.03 | 45 | 1019.5 |
| 20260503195003 | 16 | 213 | 6.4 | 22.5 | 0.00 | 0.10 | 0.03 | 47 | 1019.6 |
| 20260503194510 | 17 | 190 | 9.7 | 22.5 | 0.00 | 0.10 | 0.03 | 47 | 1019.8 |
| 20260503194004 | 17 | 225 | 6.4 | 12.9 | 0.00 | 0.10 | 0.03 | 50 | 1019.9 |
| 20260503193503 | 16 | 124 | 8.0 | 16.1 | 0.00 | 0.10 | 0.03 | 53 | 1019.9 |
| 20260503193018 | 16 | 206 | 6.4 | 16.1 | 0.00 | 0.10 | 0.03 | 51 | 1020.0 |
| 20260503192503 | 16 | 220 | 9.7 | 16.1 | 0.00 | 0.10 | 0.03 | 51 | 1020.1 |
| 20260503192010 | 16 | 233 | 8.0 | 17.7 | 0.00 | 0.10 | 0.03 | 50 | 1020.1 |
| 20260503191522 | 17 | 211 | 9.7 | 17.7 | 0.00 | 0.10 | 0.03 | 53 | 1020.2 |
| 20260503191006 | 16 | 168 | 8.0 | 17.7 | 0.00 | 0.10 | 0.03 | 51 | 1020.3 |
| 20260503190507 | 16 | 155 | 9.7 | 17.7 | 0.00 | 0.10 | 0.03 | 50 | 1020.3 |
| 20260503190025 | 17 | 186 | 9.7 | 16.1 | 0.00 | 0.10 | 0.03 | 49 | 1020.3 |
| 20260503185502 | 16 | 206 | 3.2 | 20.9 | 0.00 | 0.10 | 0.03 | 54 | 1020.4 |
| 20260503185003 | 16 | 179 | 11.3 | 19.3 | 0.00 | 0.10 | 0.03 | 52 | 1020.4 |
| 20260503184509 | 16 | 236 | 4.8 | 22.5 | 0.00 | 0.10 | 0.03 | 51 | 1020.4 |
| 20260503184003 | 16 | 193 | 1.6 | 22.5 | 0.00 | 0.10 | 0.03 | 55 | 1020.5 |
| 20260503183505 | 16 | 202 | 9.7 | 20.9 | 0.00 | 0.10 | 0.03 | 57 | 1020.5 |
| 20260503183023 | 15 | 173 | 4.8 | 20.9 | 0.00 | 0.10 | 0.03 | 54 | 1020.6 |
| 20260503182503 | 16 | 132 | 4.8 | 22.5 | 0.00 | 0.10 | 0.03 | 53 | 1020.7 |
| 20260503182007 | 15 | 170 | 11.3 | 20.9 | 0.00 | 0.10 | 0.03 | 52 | 1020.9 |
| 20260503181528 | 15 | 227 | 11.3 | 20.9 | 0.00 | 0.10 | 0.03 | 53 | 1021.0 |
| 20260503181004 | 15 | 172 | 4.8 | 20.9 | 0.00 | 0.10 | 0.03 | 58 | 1021.0 |
| 20260503180507 | 15 | 212 | 6.4 | 20.9 | 0.00 | 0.10 | 0.03 | 54 | 1021.0 |
| 20260503180025 | 16 | 212 | 6.4 | 19.3 | 0.00 | 0.10 | 0.03 | 56 | 1021.0 |
| 20260503175506 | 15 | 223 | 3.2 | 16.1 | 0.00 | 0.10 | 0.03 | 57 | 1021.0 |
| 20260503175010 | 15 | 153 | 6.4 | 16.1 | 0.00 | 0.10 | 0.03 | 60 | 1021.2 |
| 20260503174523 | 15 | 239 | 8.0 | 16.1 | 0.00 | 0.10 | 0.03 | 53 | 1021.4 |
| 20260503174006 | 15 | 248 | 6.4 | 16.1 | 0.00 | 0.10 | 0.03 | 55 | 1021.4 |
| 20260503173503 | 15 | 250 | 1.6 | 14.5 | 0.00 | 0.10 | 0.03 | 55 | 1021.3 |
| 20260503173036 | 14 | 261 | 3.2 | 14.5 | 0.00 | 0.10 | 0.03 | 54 | 1021.4 |
| 20260503172502 | 15 | 254 | 3.2 | 19.3 | 0.00 | 0.10 | 0.03 | 57 | 1021.4 |
| 20260503172004 | 14 | 202 | 8.0 | 19.3 | 0.00 | 0.10 | 0.03 | 55 | 1021.5 |
| 20260503171514 | 14 | 198 | 4.8 | 16.1 | 0.00 | 0.10 | 0.03 | 53 | 1021.5 |
| 20260503171004 | 14 | 208 | 3.2 | 16.1 | 0.00 | 0.10 | 0.03 | 56 | 1021.6 |
| 20260503170505 | 14 | 236 | 6.4 | 16.1 | 0.00 | 0.10 | 0.03 | 54 | 1021.7 |
| 20260503151008 | 11 | 300 | 3.2 | 9.7 | 0.00 | 0.10 | 0.03 | 73 | 1022.6 |
| 20260503150514 | 12 | 239 | 4.8 | 9.7 | 0.00 | 0.10 | 0.03 | 80 | 1022.6 |
| 20260503131010 | 6 | 167 | 0.0 | 8.0 | 0.00 | 0.10 | 0.03 | 96 | 1022.4 |
| 20260503130509 | 6 | 169 | 1.6 | 8.0 | 0.00 | 0.10 | 0.03 | 96 | 1022.5 |
| 20260503110502 | 5 | 114 | 1.6 | 4.8 | 0.00 | 0.10 | 0.03 | 95 | 1021.0 |
| 20260503090502 | 6 | 164 | 0.0 | 0.0 | 0.00 | 0.10 | 0.03 | 94 | 1020.5 |
| 20260503081514 | 5 | 164 | 0.0 | 0.0 | 0.03 | 0.10 | 0.03 | 94 | 1020.5 |
| 20260503081002 | 5 | 164 | 0.0 | 0.0 | 0.03 | 0.10 | 0.03 | 94 | 1020.4 |
| 20260503080502 | 5 | 164 | 0.0 | 0.0 | 0.03 | 0.10 | 0.03 | 94 | 1020.4 |
| 20260503072506 | 5 | 97 | 0.0 | 0.0 | 0.00 | 0.08 | 0.00 | 93 | 1020.2 |
| 20260503072004 | 5 | 97 | 0.0 | 3.2 | 0.00 | 0.08 | 0.00 | 93 | 1020.1 |
| 20260503071516 | 5 | 97 | 0.0 | 4.8 | 0.00 | 0.08 | 0.00 | 93 | 1020.0 |
| 20260503071003 | 5 | 97 | 1.6 | 4.8 | 0.00 | 0.08 | 0.00 | 93 | 1019.9 |
| 20260503070503 | 5 | 97 | 0.0 | 0.0 | 0.00 | 0.08 | 0.00 | 92 | 1019.9 |
| 20260503055002 | 5 | 97 | 1.6 | 3.2 | 0.00 | 0.08 | 0.00 | 91 | 1019.9 |
| 20260503054521 | 5 | 97 | 0.0 | 3.2 | 0.00 | 0.08 | 0.00 | 91 | 1019.9 |
| 20260503054005 | 5 | 97 | 0.0 | 3.2 | 0.00 | 0.08 | 0.00 | 91 | 1019.9 |
| 20260503053505 | 5 | 97 | 1.6 | 3.2 | 0.00 | 0.08 | 0.00 | 91 | 1019.8 |
| 20260503053015 | 5 | 97 | 0.0 | 1.6 | 0.00 | 0.08 | 0.00 | 91 | 1019.8 |
| 20260503052505 | 5 | 97 | 0.0 | 1.6 | 0.00 | 0.08 | 0.00 | 91 | 1019.8 |
| 20260503052006 | 5 | 97 | 0.0 | 3.2 | 0.00 | 0.08 | 0.00 | 91 | 1019.8 |
| 20260503051514 | 5 | 97 | 0.0 | 3.2 | 0.00 | 0.08 | 0.00 | 91 | 1019.8 |
| 20260503051008 | 5 | 97 | 1.6 | 3.2 | 0.00 | 0.08 | 0.00 | 90 | 1019.7 |
| 20260503050505 | 5 | 97 | 0.0 | 3.2 | 0.00 | 0.08 | 0.00 | 90 | 1019.7 |
| 20260503050007 | 5 | 97 | 0.0 | 0.0 | 0.00 | 0.08 | 0.00 | 90 | 1019.6 |
| 20260503045503 | 5 | 97 | 0.0 | 0.0 | 0.00 | 0.08 | 0.08 | 90 | 1019.6 |
| 20260503045002 | 5 | 97 | 0.0 | 0.0 | 0.00 | 0.08 | 0.08 | 90 | 1019.5 |
| 20260503044513 | 5 | 97 | 0.0 | 1.6 | 0.00 | 0.08 | 0.08 | 90 | 1019.5 |
| 20260503044004 | 5 | 97 | 0.0 | 1.6 | 0.00 | 0.08 | 0.08 | 89 | 1019.5 |
| 20260503043503 | 5 | 97 | 0.0 | 3.2 | 0.00 | 0.08 | 0.08 | 89 | 1019.4 |
| 20260503043008 | 5 | 97 | 0.0 | 3.2 | 0.00 | 0.08 | 0.08 | 89 | 1019.5 |
| 20260503042502 | 6 | 97 | 0.0 | 3.2 | 0.00 | 0.08 | 0.08 | 89 | 1019.5 |
| 20260503042002 | 6 | 97 | 0.0 | 3.2 | 0.00 | 0.08 | 0.08 | 89 | 1019.4 |
| 20260503041510 | 6 | 97 | 0.0 | 0.0 | 0.00 | 0.08 | 0.08 | 89 | 1019.4 |
| 20260503041003 | 6 | 97 | 0.0 | 1.6 | 0.00 | 0.08 | 0.08 | 89 | 1019.4 |
| 20260503040506 | 6 | 97 | 0.0 | 1.6 | 0.00 | 0.08 | 0.08 | 89 | 1019.3 |
| 20260503040014 | 6 | 97 | 0.0 | 3.2 | 0.00 | 0.08 | 0.08 | 89 | 1019.3 |
| 20260503035503 | 6 | 97 | 0.0 | 3.2 | 0.00 | 0.08 | 0.08 | 89 | 1019.3 |
| 20260503035003 | 6 | 97 | 0.0 | 3.2 | 0.00 | 0.08 | 0.08 | 89 | 1019.3 |
| 20260503034512 | 7 | 97 | 0.0 | 0.0 | 0.00 | 0.08 | 0.08 | 89 | 1019.3 |
| 20260503034002 | 7 | 97 | 0.0 | 0.0 | 0.00 | 0.08 | 0.08 | 89 | 1019.3 |
| 20260503033501 | 7 | 97 | 0.0 | 0.0 | 0.00 | 0.08 | 0.08 | 89 | 1019.3 |
| 20260503033013 | 7 | 97 | 0.0 | 0.0 | 0.00 | 0.08 | 0.08 | 89 | 1019.3 |
| 20260503032503 | 7 | 97 | 0.0 | 0.0 | 0.00 | 0.08 | 0.08 | 89 | 1019.3 |
| 20260503032005 | 7 | 97 | 0.0 | 0.0 | 0.00 | 0.08 | 0.08 | 89 | 1019.3 |
| 20260503031512 | 7 | 97 | 0.0 | 0.0 | 0.00 | 0.08 | 0.08 | 89 | 1019.4 |
| 20260503031003 | 7 | 97 | 0.0 | 0.0 | 0.00 | 0.08 | 0.08 | 89 | 1019.4 |
| 20260503030503 | 7 | 97 | 0.0 | 0.0 | 0.00 | 0.08 | 0.08 | 89 | 1019.3 |
| 20260503030013 | 7 | 97 | 0.0 | 0.0 | 0.00 | 0.08 | 0.08 | 89 | 1019.2 |
| 20260503025502 | 7 | 97 | 0.0 | 0.0 | 0.00 | 0.08 | 0.08 | 89 | 1019.2 |
| 20260503025002 | 7 | 97 | 0.0 | 0.0 | 0.00 | 0.08 | 0.08 | 89 | 1019.2 |
| 20260503024512 | 7 | 97 | 0.0 | 0.0 | 0.00 | 0.08 | 0.08 | 89 | 1019.1 |
| 20260503024003 | 7 | 97 | 0.0 | 0.0 | 0.00 | 0.08 | 0.08 | 88 | 1019.1 |
| 20260503023504 | 7 | 97 | 0.0 | 0.0 | 0.00 | 0.08 | 0.08 | 88 | 1019.1 |
| 20260503023013 | 7 | 97 | 0.0 | 0.0 | 0.00 | 0.08 | 0.08 | 88 | 1019.0 |
| 20260503022506 | 7 | 97 | 0.0 | 0.0 | 0.00 | 0.08 | 0.08 | 88 | 1019.0 |
| 20260503022003 | 7 | 97 | 0.0 | 0.0 | 0.00 | 0.08 | 0.08 | 88 | 1019.0 |
| 20260503021524 | 7 | 97 | 0.0 | 1.6 | 0.00 | 0.08 | 0.08 | 87 | 1019.0 |
| 20260503021006 | 7 | 97 | 0.0 | 1.6 | 0.00 | 0.08 | 0.08 | 87 | 1019.0 |
| 20260503020505 | 7 | 97 | 0.0 | 4.8 | 0.00 | 0.08 | 0.08 | 87 | 1019.0 |
| 20260503020030 | 7 | 97 | 0.0 | 9.7 | 0.00 | 0.08 | 0.08 | 87 | 1018.8 |
| 20260503015506 | 7 | 97 | 1.6 | 9.7 | 0.00 | 0.08 | 0.08 | 87 | 1018.8 |
| 20260503015007 | 7 | 102 | 3.2 | 6.4 | 0.00 | 0.08 | 0.08 | 87 | 1018.8 |
| 20260503014516 | 7 | 352 | 3.2 | 8.0 | 0.00 | 0.08 | 0.08 | 87 | 1018.9 |
| 20260503014005 | 7 | 5 | 4.8 | 8.0 | 0.00 | 0.08 | 0.08 | 87 | 1019.0 |
| 20260503013503 | 7 | 335 | 3.2 | 6.4 | 0.00 | 0.08 | 0.08 | 87 | 1019.0 |
| 20260503013016 | 8 | 317 | 3.2 | 8.0 | 0.00 | 0.08 | 0.08 | 86 | 1019.0 |
| 20260503012503 | 8 | 355 | 3.2 | 8.0 | 0.00 | 0.08 | 0.08 | 86 | 1018.9 |
| 20260503012005 | 8 | 315 | 1.6 | 6.4 | 0.03 | 0.08 | 0.08 | 86 | 1018.9 |
| 20260503011519 | 8 | 312 | 1.6 | 4.8 | 0.03 | 0.08 | 0.08 | 86 | 1018.9 |
| 20260503011005 | 8 | 311 | 0.0 | 4.8 | 0.05 | 0.08 | 0.08 | 86 | 1018.8 |
| 20260503010507 | 8 | 311 | 0.0 | 4.8 | 0.08 | 0.08 | 0.08 | 85 | 1018.8 |
| 20260503010017 | 8 | 311 | 0.0 | 0.0 | 0.08 | 0.08 | 0.08 | 85 | 1018.6 |
| 20260503005507 | 8 | 311 | 0.0 | 3.2 | 0.08 | 0.08 | 0.08 | 85 | 1018.6 |
| 20260503005004 | 8 | 311 | 0.0 | 3.2 | 0.08 | 0.08 | 0.08 | 84 | 1018.6 |
| 20260503004543 | 8 | 311 | 1.6 | 6.4 | 0.08 | 0.08 | 0.08 | 84 | 1018.6 |
| 20260503004007 | 8 | 311 | 1.6 | 8.0 | 0.08 | 0.08 | 0.08 | 83 | 1018.6 |